Time,TemperatureF,DewpointF,PressureIn,WindDirection,WindDirectionDegrees,WindSpeedMPH,WindSpeedGustMPH,Humidity,HourlyPrecipIn,Conditions,Clouds,dailyrainin,SoftwareType,DateUTC
2013-02-09 00:22:00,27.0,-99.9,-100.00,ESE,107,0.0,5.0,-999,-99.99,,,-99.99,,2013-02-09 09:22:00,
2013-02-09 00:32:00,27.0,-99.9,-100.00,ESE,107,0.0,5.0,-999,-99.99,,,-99.99,,2013-02-09 09:32:00,
2013-02-09 00:42:00,27.0,-99.9,-100.00,ESE,107,0.0,5.0,-999,-99.99,,,-99.99,,2013-02-09 09:42:00,
2013-02-09 00:52:00,27.0,-99.9,-100.00,ESE,107,0.0,5.0,-999,-99.99,,,-99.99,,2013-02-09 09:52:00,
2013-02-09 01:21:00,26.0,-99.9,-100.00,NNW,343,3.0,3.0,-999,-99.99,,,-99.99,,2013-02-09 10:21:00,
2013-02-09 01:32:00,26.0,-99.9,-100.00,NNW,343,3.0,3.0,-999,-99.99,,,-99.99,,2013-02-09 10:32:00,
2013-02-09 01:42:00,26.0,-99.9,-100.00,NNW,343,3.0,3.0,-999,-99.99,,,-99.99,,2013-02-09 10:42:00,
2013-02-09 01:52:00,26.0,-99.9,-100.00,NNW,343,3.0,3.0,-999,-99.99,,,-99.99,,2013-02-09 10:52:00,
2013-02-09 02:22:00,26.0,-99.9,-100.00,NE,48,0.0,0.0,-999,-99.99,,,-99.99,,2013-02-09 11:22:00,
2013-02-09 02:32:00,26.0,-99.9,-100.00,NE,48,0.0,0.0,-999,-99.99,,,-99.99,,2013-02-09 11:32:00,
2013-02-09 02:42:00,26.0,-99.9,-100.00,NE,48,0.0,0.0,-999,-99.99,,,-99.99,,2013-02-09 11:42:00,
2013-02-09 02:53:00,26.0,-99.9,-100.00,NE,48,0.0,0.0,-999,-99.99,,,-99.99,,2013-02-09 11:53:00,
2013-02-09 03:22:00,26.0,-99.9,-100.00,NNE,29,0.0,0.0,-999,-99.99,,,-99.99,,2013-02-09 12:22:00,
2013-02-09 03:32:00,26.0,-99.9,-100.00,NNE,29,0.0,0.0,-999,-99.99,,,-99.99,,2013-02-09 12:32:00,
2013-02-09 03:42:00,26.0,-99.9,-100.00,NNE,29,0.0,0.0,-999,-99.99,,,-99.99,,2013-02-09 12:42:00,
2013-02-09 03:53:00,26.0,-99.9,-100.00,NNE,29,0.0,0.0,-999,-99.99,,,-99.99,,2013-02-09 12:53:00,
2013-02-09 04:22:00,25.0,-99.9,-100.00,NE,45,0.0,6.0,-999,-99.99,,,-99.99,,2013-02-09 13:22:00,
2013-02-09 04:32:00,25.0,-99.9,-100.00,NE,45,0.0,6.0,-999,-99.99,,,-99.99,,2013-02-09 13:32:00,
2013-02-09 04:42:00,25.0,-99.9,-100.00,NE,45,0.0,6.0,-999,-99.99,,,-99.99,,2013-02-09 13:42:00,
2013-02-09 04:52:00,25.0,-99.9,-100.00,NE,45,0.0,6.0,-999,-99.99,,,-99.99,,2013-02-09 13:52:00,
2013-02-09 05:22:00,25.0,-99.9,-100.00,NW,314,0.0,4.0,-999,-99.99,,,-99.99,,2013-02-09 14:22:00,
2013-02-09 05:32:00,25.0,-99.9,-100.00,NW,314,0.0,4.0,-999,-99.99,,,-99.99,,2013-02-09 14:32:00,
2013-02-09 05:42:00,25.0,-99.9,-100.00,NW,314,0.0,4.0,-999,-99.99,,,-99.99,,2013-02-09 14:42:00,
2013-02-09 05:52:00,25.0,-99.9,-100.00,NW,314,0.0,4.0,-999,-99.99,,,-99.99,,2013-02-09 14:52:00,
2013-02-09 06:22:00,26.0,-99.9,-100.00,NNW,336,0.0,0.0,-999,-99.99,,,-99.99,,2013-02-09 15:22:00,
2013-02-09 06:32:00,26.0,-99.9,-100.00,NNW,336,0.0,0.0,-999,-99.99,,,-99.99,,2013-02-09 15:32:00,
2013-02-09 06:42:00,26.0,-99.9,-100.00,NNW,336,0.0,0.0,-999,-99.99,,,-99.99,,2013-02-09 15:42:00,
2013-02-09 06:52:00,26.0,-99.9,-100.00,NNW,336,0.0,0.0,-999,-99.99,,,-99.99,,2013-02-09 15:52:00,
2013-02-09 07:22:00,25.0,-99.9,-100.00,NE,42,0.0,0.0,-999,-99.99,,,-99.99,,2013-02-09 16:22:00,
2013-02-09 07:32:00,25.0,-99.9,-100.00,NE,42,0.0,0.0,-999,-99.99,,,-99.99,,2013-02-09 16:32:00,
2013-02-09 07:42:00,25.0,-99.9,-100.00,NE,42,0.0,0.0,-999,-99.99,,,-99.99,,2013-02-09 16:42:00,
2013-02-09 07:52:00,25.0,-99.9,-100.00,NE,42,0.0,0.0,-999,-99.99,,,-99.99,,2013-02-09 16:52:00,
2013-02-09 08:22:00,26.0,-99.9,-100.00,NE,55,0.0,4.0,-999,-99.99,,,-99.99,,2013-02-09 17:22:00,
2013-02-09 08:32:00,26.0,-99.9,-100.00,NE,55,0.0,4.0,-999,-99.99,,,-99.99,,2013-02-09 17:32:00,
2013-02-09 08:42:00,26.0,-99.9,-100.00,NE,55,0.0,4.0,-999,-99.99,,,-99.99,,2013-02-09 17:42:00,
2013-02-09 08:52:00,26.0,-99.9,-100.00,NE,55,0.0,4.0,-999,-99.99,,,-99.99,,2013-02-09 17:52:00,
2013-02-09 09:23:00,26.0,-99.9,-100.00,WNW,289,3.0,7.0,-999,-99.99,,,-99.99,,2013-02-09 18:23:00,
2013-02-09 09:32:00,26.0,-99.9,-100.00,WNW,289,3.0,7.0,-999,-99.99,,,-99.99,,2013-02-09 18:32:00,
2013-02-09 09:42:00,26.0,-99.9,-100.00,WNW,289,3.0,7.0,-999,-99.99,,,-99.99,,2013-02-09 18:42:00,
2013-02-09 09:52:00,26.0,-99.9,-100.00,WNW,289,3.0,7.0,-999,-99.99,,,-99.99,,2013-02-09 18:52:00,
2013-02-09 10:22:00,26.0,-99.9,-100.00,WSW,237,3.0,6.0,-999,-99.99,,,-99.99,,2013-02-09 19:22:00,
2013-02-09 10:32:00,26.0,-99.9,-100.00,WSW,237,3.0,6.0,-999,-99.99,,,-99.99,,2013-02-09 19:32:00,
2013-02-09 10:42:00,26.0,-99.9,-100.00,WSW,237,3.0,6.0,-999,-99.99,,,-99.99,,2013-02-09 19:42:00,
2013-02-09 10:52:00,26.0,-99.9,-100.00,WSW,237,3.0,6.0,-999,-99.99,,,-99.99,,2013-02-09 19:52:00,
2013-02-09 11:22:00,28.0,-99.9,-100.00,WSW,258,0.0,6.0,-999,-99.99,,,-99.99,,2013-02-09 20:22:00,
2013-02-09 11:32:00,28.0,-99.9,-100.00,WSW,258,0.0,6.0,-999,-99.99,,,-99.99,,2013-02-09 20:32:00,
2013-02-09 11:42:00,28.0,-99.9,-100.00,WSW,258,0.0,6.0,-999,-99.99,,,-99.99,,2013-02-09 20:42:00,
2013-02-09 11:52:00,28.0,-99.9,-100.00,WSW,258,0.0,6.0,-999,-99.99,,,-99.99,,2013-02-09 20:52:00,
2013-02-09 13:22:00,33.0,-99.9,-100.00,NNE,29,6.0,9.0,-999,-99.99,,,-99.99,,2013-02-09 22:22:00,
2013-02-09 13:32:00,33.0,-99.9,-100.00,NNE,29,6.0,9.0,-999,-99.99,,,-99.99,,2013-02-09 22:32:00,
2013-02-09 13:42:00,33.0,-99.9,-100.00,NNE,29,6.0,9.0,-999,-99.99,,,-99.99,,2013-02-09 22:42:00,
2013-02-09 13:52:00,33.0,-99.9,-100.00,NNE,29,6.0,9.0,-999,-99.99,,,-99.99,,2013-02-09 22:52:00,
2013-02-09 14:22:00,31.0,-99.9,-100.00,SW,227,0.0,6.0,-999,-99.99,,,-99.99,,2013-02-09 23:22:00,
2013-02-09 14:32:00,31.0,-99.9,-100.00,SW,227,0.0,6.0,-999,-99.99,,,-99.99,,2013-02-09 23:32:00,
2013-02-09 14:42:00,31.0,-99.9,-100.00,SW,227,0.0,6.0,-999,-99.99,,,-99.99,,2013-02-09 23:42:00,
2013-02-09 14:52:00,31.0,-99.9,-100.00,SW,227,0.0,6.0,-999,-99.99,,,-99.99,,2013-02-09 23:52:00,
2013-02-09 15:22:00,34.0,-99.9,-100.00,SW,228,0.0,4.0,-999,-99.99,,,-99.99,,2013-02-10 00:22:00,
2013-02-09 15:32:00,34.0,-99.9,-100.00,SW,228,0.0,4.0,-999,-99.99,,,-99.99,,2013-02-10 00:32:00,
2013-02-09 15:42:00,34.0,-99.9,-100.00,SW,228,0.0,4.0,-999,-99.99,,,-99.99,,2013-02-10 00:42:00,
2013-02-09 15:52:00,34.0,-99.9,-100.00,SW,228,0.0,4.0,-999,-99.99,,,-99.99,,2013-02-10 00:52:00,
2013-02-09 16:22:00,34.0,-99.9,-100.00,WNW,282,2.0,6.0,-999,-99.99,,,-99.99,,2013-02-10 01:22:00,
2013-02-09 16:32:00,34.0,-99.9,-100.00,WNW,282,2.0,6.0,-999,-99.99,,,-99.99,,2013-02-10 01:32:00,
2013-02-09 16:42:00,34.0,-99.9,-100.00,WNW,282,2.0,6.0,-999,-99.99,,,-99.99,,2013-02-10 01:42:00,
2013-02-09 16:52:00,34.0,-99.9,-100.00,WNW,282,2.0,6.0,-999,-99.99,,,-99.99,,2013-02-10 01:52:00,
2013-02-09 17:22:00,33.0,-99.9,-100.00,WSW,252,0.0,6.0,-999,-99.99,,,-99.99,,2013-02-10 02:22:00,
2013-02-09 17:32:00,33.0,-99.9,-100.00,WSW,252,0.0,6.0,-999,-99.99,,,-99.99,,2013-02-10 02:32:00,
2013-02-09 17:42:00,33.0,-99.9,-100.00,WSW,252,0.0,6.0,-999,-99.99,,,-99.99,,2013-02-10 02:42:00,
2013-02-09 17:52:00,33.0,-99.9,-100.00,WSW,252,0.0,6.0,-999,-99.99,,,-99.99,,2013-02-10 02:52:00,
2013-02-09 18:22:00,30.0,-99.9,-100.00,North,0,4.0,5.0,-999,-99.99,,,-99.99,,2013-02-10 03:22:00,
2013-02-09 18:32:00,30.0,-99.9,-100.00,North,0,4.0,5.0,-999,-99.99,,,-99.99,,2013-02-10 03:32:00,
2013-02-09 18:42:00,30.0,-99.9,-100.00,North,0,4.0,5.0,-999,-99.99,,,-99.99,,2013-02-10 03:42:00,
2013-02-09 18:52:00,30.0,-99.9,-100.00,North,0,4.0,5.0,-999,-99.99,,,-99.99,,2013-02-10 03:52:00,
2013-02-09 19:22:00,31.0,-99.9,-100.00,SSW,204,3.0,8.0,-999,-99.99,,,-99.99,,2013-02-10 04:22:00,
2013-02-09 19:32:00,31.0,-99.9,-100.00,SSW,204,3.0,8.0,-999,-99.99,,,-99.99,,2013-02-10 04:32:00,
2013-02-09 19:42:00,31.0,-99.9,-100.00,SSW,204,3.0,8.0,-999,-99.99,,,-99.99,,2013-02-10 04:42:00,
2013-02-09 19:52:00,31.0,-99.9,-100.00,SSW,204,3.0,8.0,-999,-99.99,,,-99.99,,2013-02-10 04:52:00,
2013-02-09 20:23:00,31.0,-99.9,-100.00,West,265,4.0,5.0,-999,-99.99,,,-99.99,,2013-02-10 05:23:00,
2013-02-09 20:32:00,31.0,-99.9,-100.00,West,265,4.0,5.0,-999,-99.99,,,-99.99,,2013-02-10 05:32:00,
2013-02-09 20:42:00,31.0,-99.9,-100.00,West,265,4.0,5.0,-999,-99.99,,,-99.99,,2013-02-10 05:42:00,
2013-02-09 20:52:00,31.0,-99.9,-100.00,West,265,4.0,5.0,-999,-99.99,,,-99.99,,2013-02-10 05:52:00,
2013-02-09 21:22:00,29.0,-99.9,-100.00,ENE,76,0.0,0.0,-999,-99.99,,,-99.99,,2013-02-10 06:22:00,
2013-02-09 21:32:00,29.0,-99.9,-100.00,ENE,76,0.0,0.0,-999,-99.99,,,-99.99,,2013-02-10 06:32:00,
2013-02-09 21:42:00,29.0,-99.9,-100.00,ENE,76,0.0,0.0,-999,-99.99,,,-99.99,,2013-02-10 06:42:00,
2013-02-09 21:52:00,29.0,-99.9,-100.00,ENE,76,0.0,0.0,-999,-99.99,,,-99.99,,2013-02-10 06:52:00,
2013-02-09 23:22:00,29.0,-99.9,-100.00,NNE,12,0.0,0.0,-999,-99.99,,,-99.99,,2013-02-10 08:22:00,
2013-02-09 23:32:00,29.0,-99.9,-100.00,NNE,12,0.0,0.0,-999,-99.99,,,-99.99,,2013-02-10 08:32:00,
2013-02-09 23:43:00,29.0,-99.9,-100.00,NNE,12,0.0,0.0,-999,-99.99,,,-99.99,,2013-02-10 08:43:00,
2013-02-09 23:52:00,29.0,-99.9,-100.00,NNE,12,0.0,0.0,-999,-99.99,,,-99.99,,2013-02-10 08:52:00,